Location: Bothwell
(42.3833°S, 147.0000°E)
Time: 01:07:00
(UTC+11:00)

METEOR 2-5 DEB - Visible Passes

Search period start: 22 March 2023 00:00
Search period end: 01 April 2023 00:00
Orbit: 774 x 800 km, 81.2° (Epoch: 20 March)

Date Brightness Start Highest point End Pass type
(mag) Time Alt. Az. Time Alt. Az. Time Alt. Az.
22 Mar ? 23:18:27 10° S 23:18:39 11° S 23:18:39 11° S visible
24 Mar ? 23:57:40 10° SSW 23:57:48 11° SSW 23:57:48 11° SSW visible
25 Mar ? 23:26:42 10° S 23:27:02 12° S 23:27:02 12° S visible
26 Mar ? 22:55:53 10° S 22:56:15 12° S 22:56:15 12° S visible
27 Mar ? 22:25:17 10° SSE 22:25:28 11° SSE 22:25:28 11° SSE visible
28 Mar ? 23:35:07 10° SSW 23:35:20 11° SSW 23:35:20 11° SSW visible
29 Mar ? 23:04:00 10° S 23:04:32 13° S 23:04:32 13° S visible
30 Mar ? 22:33:03 10° S 22:33:44 14° S 22:33:44 14° S visible
31 Mar ? 22:02:16 10° S 22:02:56 13° SSE 22:02:56 13° SSE visible
